CW9002 Weather Reports


time (UTC)temp
C
wind
direction
speed
KPH
gust
KPH
rain 1hr
cm
rain 24hr
cm
rain mn
cm
humidity
%
barometer
mb
20260507210706 13 311 4.8 19.3 0.00 0.00 0.00 50 1023.5
20260507210206 13 263 4.8 19.3 0.00 0.00 0.00 51 1023.5
20260507203706 13 244 3.2 19.3 0.00 0.00 0.00 51 1023.5
20260507200706 13 258 8.0 19.3 0.00 0.00 0.00 50 1023.7
20260507200206 13 278 8.0 19.3 0.00 0.00 0.00 49 1023.9
20260507193705 12 217 4.8 14.5 0.00 0.00 0.00 51 1024.1
20260507193206 12 289 3.2 14.5 0.00 0.00 0.00 51 1024.1
20260507190706 12 253 4.8 19.3 0.00 0.00 0.00 50 1024.2
20260507190206 13 211 6.4 19.3 0.00 0.00 0.00 47 1024.3
20260507180705 12 255 4.8 16.1 0.00 0.03 0.00 51 1024.5
20260507180205 12 317 6.4 24.1 0.00 0.03 0.00 50 1024.5
20260507173706 13 246 4.8 16.1 0.00 0.03 0.00 51 1024.9
20260507173205 13 263 4.8 16.1 0.00 0.03 0.00 53 1025.0
20260507170705 12 211 3.2 14.5 0.00 0.03 0.00 54 1025.3
20260507170206 12 256 4.8 14.5 0.00 0.03 0.00 53 1025.4
20260507163705 12 207 4.8 14.5 0.00 0.03 0.00 54 1025.5
20260507163205 11 242 3.2 20.9 0.00 0.03 0.00 54 1025.6
20260507160705 11 238 3.2 19.3 0.00 0.03 0.00 55 1025.9
20260507160206 11 311 3.2 12.9 0.00 0.03 0.00 56 1025.9
20260507153707 11 254 3.2 12.9 0.00 0.03 0.00 55 1025.9
20260507153205 11 199 4.8 12.9 0.00 0.03 0.00 54 1025.9
20260507150705 11 277 4.8 9.7 0.00 0.05 0.00 53 1026.2
20260507143705 11 249 4.8 9.7 0.00 0.05 0.00 54 1026.6
20260507140705 10 289 1.6 16.1 0.00 0.05 0.00 56 1026.9
20260507140206 10 228 4.8 16.1 0.00 0.05 0.00 58 1027.0
20260507133705 9 188 1.6 11.3 0.00 0.05 0.00 65 1027.2
20260507133205 9 216 4.8 11.3 0.00 0.05 0.00 63 1027.3
20260507130706 8 260 1.6 4.8 0.00 0.05 0.00 67 1027.1
20260507130205 8 269 1.6 4.8 0.00 0.05 0.00 68 1027.2
20260507123206 6 191 1.6 4.8 0.00 0.08 0.00 81 1027.3
20260507120706 4 155 0.0 0.0 0.00 0.08 0.00 87 1027.3
20260507120205 3 155 0.0 0.0 0.00 0.08 0.00 88 1027.2
20260507113706 3 155 0.0 0.0 0.00 0.08 0.00 89 1027.2
20260507110705 2 155 0.0 0.0 0.00 0.13 0.00 90 1026.7
20260507110205 2 155 0.0 0.0 0.00 0.13 0.00 90 1026.6
20260507103705 2 155 0.0 0.0 0.00 0.20 0.00 91 1026.5
20260507103205 2 155 0.0 0.0 0.00 0.23 0.00 91 1026.4
20260507100706 2 155 0.0 0.0 0.00 0.28 0.00 90 1026.1
20260507100206 2 155 0.0 0.0 0.00 0.28 0.00 90 1026.1
20260507093705 3 155 0.0 0.0 0.00 0.38 0.00 89 1026.0
20260507090207 3 155 0.0 0.0 0.00 0.43 0.00 87 1026.1
20260507083705 5 155 0.0 0.0 0.00 0.48 0.00 85 1025.9
20260507083205 5 155 0.0 0.0 0.00 0.48 0.00 85 1025.9
20260507080706 5 155 0.0 0.0 0.00 0.48 0.00 82 1025.9
20260507080206 5 155 0.0 0.0 0.00 0.48 0.00 82 1025.9
20260507073705 6 155 0.0 0.0 0.00 0.48 0.00 80 1025.9
20260507073205 6 155 0.0 0.0 0.00 0.48 0.00 80 1025.9
20260507070706 6 155 0.0 0.0 0.00 0.48 0.00 81 1025.5
20260507070205 6 155 0.0 0.0 0.00 0.48 0.00 80 1025.5
20260507063706 6 155 0.0 0.0 0.00 0.48 0.00 82 1025.8
20260507063205 6 155 0.0 0.0 0.00 0.48 0.00 81 1025.8
20260507060705 6 155 0.0 0.0 0.00 0.48 0.00 84 1026.0
20260507053705 7 155 0.0 0.0 0.00 0.48 0.00 83 1026.2
20260507053204 7 155 0.0 0.0 0.00 0.48 0.00 82 1026.3
20260507050706 7 148 0.0 0.0 0.00 0.48 0.00 83 1026.3
20260507050205 7 148 0.0 0.0 0.00 0.48 0.00 83 1026.3
20260507043204 7 151 1.6 3.2 0.00 0.48 0.00 84 1026.0
20260507040706 7 144 0.0 1.6 0.00 0.48 0.00 87 1026.1
20260507033704 7 144 0.0 0.0 0.00 0.48 0.48 86 1026.0
20260507033206 7 144 0.0 1.6 0.00 0.48 0.48 85 1026.1
20260507030705 7 144 0.0 4.8 0.00 0.48 0.48 86 1025.6
20260507030205 7 143 1.6 4.8 0.00 0.48 0.48 87 1025.4
20260507023205 8 192 0.0 1.6 0.00 0.48 0.48 93 1025.5
20260507020706 8 192 0.0 0.0 0.00 0.48 0.48 93 1024.9
20260507013706 8 192 0.0 0.0 0.00 0.48 0.48 93 1024.5
20260507010707 8 192 0.0 0.0 0.00 0.48 0.48 93 1024.6
20260507010206 8 192 0.0 0.0 0.00 0.48 0.48 92 1024.7
20260507003707 8 192 0.0 0.0 0.00 0.48 0.48 92 1024.8
20260507000706 8 192 0.0 1.6 0.00 0.48 0.48 92 1024.8
20260506233706 8 192 0.0 1.6 0.00 0.48 0.48 91 1024.5
20260506230707 8 175 1.6 3.2 0.00 0.48 0.48 91 1023.9
20260506230206 8 171 1.6 4.8 0.00 0.48 0.48 92 1023.7
20260506223706 8 166 0.0 4.8 0.00 0.48 0.48 92 1023.6
20260506223206 8 166 1.6 8.0 0.00 0.48 0.48 92 1023.6
20260506220706 9 192 1.6 4.8 0.00 0.48 0.48 93 1023.5
20260506220207 9 238 1.6 11.3 0.00 0.48 0.48 94 1023.4
20260506213706 9 266 1.6 3.2 0.00 0.48 0.48 95 1023.0
20260506213207 9 267 1.6 8.0 0.00 0.48 0.48 95 1022.8